Volver al catálogo

BLOCK DM-SL R/B

ActivoGTO
NORAD 27826·ROCKET BODY· XX

Lanzado Jun 10, 2003 desde Sea Launch Platform

Loading…

TLE

ActualizadoSource: Space-Track

Época: Sep 14, 2026, 12:25 UTC

1 27826U 03026B   26257.51758867 -.00000092  00000-0  00000-0 0  9997
2 27826   6.1441  41.6834 6971220  12.0780 237.2233  2.22047314188772

Sigue BLOCK DM-SL R/B en tiempo real con AllMySat

Download on the App Store